"Pseudo-MPEC" for ST26G01

Created 2026 Jul 17 10:35:05 UT using Find_Orb

Click here for an explanation of pseudo-MPECs

 
 Astrometry: 
     ST26G01* C2026 07 07.24570917 02 56.231-08 00 10.26   ~7CF5 18.81GVNEOCPU68
     ST26G01  C2026 07 07.24905017 03 07.356-08 05 48.56   ~7CF5 18.81GVNEOCPU68
     ST26G01  C2026 07 07.26812017 04 10.865-08 38 02.31   ~7CF5 18.62GVNEOCPU74
     ST26G01  C2026 07 07.26995817 04 17.027-08 41 09.40   ~7CF5 18.62GVNEOCPU74
     ST26G01  C2026 07 07.29805217 05 50.909-09 28 30.78   ~7CF5 18.63GVNEOCPU74
     ST26G01  C2026 07 07.30139317 06 02.115-09 34 07.57   ~7CF5 18.63GVNEOCPU74
     ST26G01  C2026 07 07.30371317 06 02.949-09 37 32.06   ~7CF5 18.9 GWNEOCPH01
     ST26G01  C2026 07 07.30725517 06 14.858-09 43 28.27   ~7CF5 18.9 GWNEOCPH01
     ST26G01  C2026 07 07.32193817 07 04.470-10 08 06.20   ~7CF5 19.4 GWNEOCPH01
     ST26G01  C2026 07 07.32651317 07 19.961-10 15 46.22   ~7CF5 18.8 GWNEOCPH01
     ST26G01 1C2026 07 07.34805617 08 34.404-10 51 39.28   ~7CF5 18.97GVNEOCPI52
     ST26G01 1C2026 07 07.34855317 08 36.114-10 52 29.28   ~7CF5 19.31GVNEOCPI52
     ST26G01 1C2026 07 07.34904917 08 37.792-10 53 19.21   ~7CF5 19.13GVNEOCPI52
     ST26G01 1C2026 07 07.34955117 08 39.473-10 54 08.82   ~7CF5 19.03GVNEOCPI52

Station data:
(H01) Magdalena Ridge Observatory, Socorro  (N33.984833 W107.189333)  US/New
   Mexico.  Observers W. H. Ryan, E. V. Ryan. Measurer W. H. Ryan. 2.4-m
   f/8.9 reflector + CCD.
(I52) Steward Observatory, Mt. Lemmon Station  (N32.442570 W110.788920)
   US/Arizona. Measurers T. Beuden, V. F. Carvajal, D. Fay, J. B. Fazekas, D.
   C. Fuls, A. R. Gibbs, A. D. Grauer, H. Gröller, J. K. Hogan, R. A.
   Kowalski, S. M. Larson, G. J. Leonard, D. Rankin, R. L. Seaman, F. C.
   Shelly, K. W. Wierzchoś. 1.0-m prime focus + CCD.
(U68) JPL SynTrack Robotic Telescope, Auberry  (N37.070387 W119.412990)
   US/California.  Observers N. Saini, C. Zhai, R. Trahan, M. Zhan, M. Shao.
   0.28-m f/2.2 Schmidt + CCD.
(U74) JPL SynTrack Robotic Telescope 2, Auberry  (N37.070341 W119.412800)
   US/California.  Observers N. Saini, C. Zhai, R. Trahan, M. Zhan, M. Shao.
   0.36-m f/2.2 Schmidt.

Orbital elements:  ST26G01
   Perihelion 2026 Jun 14.793521 +/- 0.255 TT = 19:02:40.2 (JD 2461206.293521)
Epoch 2026 Jul  7.0 TT = JDT 2461228.5   Earth MOID: 0.0124      AutoNEOCP
M   6.144276236 +/- 0.13            (J2000 ecliptic)
n   0.276688455 +/- 0.00374         Peri.  151.741673 +/- 0.31
a   2.332430382 +/- 0.021           Node   105.050338 +/- 0.0014
e   0.57720830 +/- 0.00367          Incl.   18.066700 +/- 0.06
P   3.56216                H 26.98  G  0.15   U  9.0
q 0.986132206 +/- 0.000904    Q 3.678728559 +/- 0.0417
From 14 observations 2026 July 7 (2.5 hr); mean residual 0".29
Residuals in arcseconds: 
260707 U68  .02-  .32-    260707 U74  .39-  .33+    260707 I52  .08+  .14+    
260707 U68  .13+  .47+    260707 H01  .12+  .61-    260707 I52  .34+  .07-    
260707 U74  .06-  .41+    260707 H01  .20-  .14+    260707 I52  .19+  .32-    
260707 U74  .40+  .48-    260707 H01  .08+  .12+    260707 I52  .23-  .35+    
260707 U74  .42-  .21-    260707 H01  .04-  .03-    

Ephemerides (geocentric):
Date (UTC) HH   RA             Dec           delta  r     elong  mag " sig PA
---- --------  ------------   ------------  ------ ------ -----  --- --------
2026 07 17 11  22 19 36.626   -62 33 35.05  .08406 1.0735 131.1 23.5 29.4  40
2026 07 17 12  22 19 55.587   -62 33 42.04  .08439 1.0737 131.1 23.5 29.4  40
2026 07 17 13  22 20 14.387   -62 33 48.71  .08472 1.0739 131.1 23.5 29.4  40
2026 07 17 14  22 20 33.026   -62 33 55.09  .08505 1.0741 131.1 23.5 29.4  40
2026 07 17 15  22 20 51.507   -62 34 01.16  .08539 1.0743 131.0 23.5 29.4  40
2026 07 17 16  22 21 09.831   -62 34 06.95  .08572 1.0745 131.0 23.5 29.4  40
2026 07 17 17  22 21 28.001   -62 34 12.45  .08605 1.0747 131.0 23.5 29.4  40
2026 07 17 18  22 21 46.017   -62 34 17.66  .08638 1.0749 131.0 23.6 29.4  40
2026 07 17 19  22 22 03.881   -62 34 22.60  .08672 1.0751 131.0 23.6 29.4  39
2026 07 17 20  22 22 21.595   -62 34 27.27  .08705 1.0754 130.9 23.6 29.4  39
2026 07 17 21  22 22 39.160   -62 34 31.67  .08738 1.0756 130.9 23.6 29.4  39
2026 07 17 22  22 22 56.578   -62 34 35.81  .08771 1.0758 130.9 23.6 29.4  39
2026 07 17 23  22 23 13.850   -62 34 39.69  .08805 1.0760 130.9 23.6 29.4  39
2026 07 18 00  22 23 30.978   -62 34 43.31  .08838 1.0762 130.9 23.6 29.4  39
2026 07 18 01  22 23 47.963   -62 34 46.69  .08871 1.0764 130.8 23.6 29.4  39
2026 07 18 02  22 24 04.807   -62 34 49.82  .08905 1.0766 130.8 23.6 29.4  39
2026 07 18 03  22 24 21.511   -62 34 52.71  .08938 1.0768 130.8 23.6 29.4  39
2026 07 18 04  22 24 38.077   -62 34 55.36  .08971 1.0770 130.8 23.6 29.4  39
2026 07 18 05  22 24 54.506   -62 34 57.78  .09004 1.0773 130.8 23.7 29.4  39
2026 07 18 06  22 25 10.799   -62 34 59.97  .09038 1.0775 130.8 23.7 29.4  39
2026 07 18 07  22 25 26.958   -62 35 01.93  .09071 1.0777 130.7 23.7 29.4  38
2026 07 18 08  22 25 42.983   -62 35 03.67  .09104 1.0779 130.7 23.7 29.4  38
2026 07 18 09  22 25 58.877   -62 35 05.19  .09138 1.0781 130.7 23.7 29.4  38
2026 07 18 10  22 26 14.641   -62 35 06.50  .09171 1.0783 130.7 23.7 29.4  38
2026 07 18 11  22 26 30.276   -62 35 07.60  .09204 1.0785 130.7 23.7 29.3  38
2026 07 18 12  22 26 45.782   -62 35 08.49  .09238 1.0787 130.7 23.7 29.3  38
2026 07 18 13  22 27 01.163   -62 35 09.17  .09271 1.0790 130.7 23.7 29.3  38
2026 07 18 14  22 27 16.418   -62 35 09.66  .09304 1.0792 130.6 23.7 29.3  38
2026 07 18 15  22 27 31.548   -62 35 09.94  .09338 1.0794 130.6 23.7 29.3  38
2026 07 18 16  22 27 46.556   -62 35 10.03  .09371 1.0796 130.6 23.7 29.3  38
2026 07 18 17  22 28 01.443   -62 35 09.93  .09404 1.0798 130.6 23.8 29.3  38
2026 07 18 18  22 28 16.209   -62 35 09.64  .09438 1.0800 130.6 23.8 29.3  38
2026 07 18 19  22 28 30.855   -62 35 09.17  .09471 1.0802 130.6 23.8 29.3  38
2026 07 18 20  22 28 45.383   -62 35 08.51  .09504 1.0805 130.6 23.8 29.3  37
2026 07 18 21  22 28 59.794   -62 35 07.68  .09538 1.0807 130.5 23.8 29.3  37
2026 07 18 22  22 29 14.090   -62 35 06.66  .09571 1.0809 130.5 23.8 29.3  37
2026 07 18 23  22 29 28.270   -62 35 05.47  .09604 1.0811 130.5 23.8 29.3  37
2026 07 19 00  22 29 42.337   -62 35 04.11  .09638 1.0813 130.5 23.8 29.3  37
2026 07 19 01  22 29 56.291   -62 35 02.58  .09671 1.0815 130.5 23.8 29.3  37
2026 07 19 02  22 30 10.133   -62 35 00.89  .09705 1.0817 130.5 23.8 29.3  37
2026 07 19 03  22 30 23.865   -62 34 59.03  .09738 1.0820 130.5 23.8 29.3  37
2026 07 19 04  22 30 37.487   -62 34 57.01  .09771 1.0822 130.5 23.8 29.3  37
2026 07 19 05  22 30 51.001   -62 34 54.83  .09805 1.0824 130.4 23.8 29.3  37
2026 07 19 06  22 31 04.407   -62 34 52.50  .09838 1.0826 130.4 23.9 29.3  37
2026 07 19 07  22 31 17.707   -62 34 50.01  .09872 1.0828 130.4 23.9 29.3  37
2026 07 19 08  22 31 30.902   -62 34 47.37  .09905 1.0830 130.4 23.9 29.3  37
2026 07 19 09  22 31 43.991   -62 34 44.58  .09938 1.0833 130.4 23.9 29.3  37
2026 07 19 10  22 31 56.978   -62 34 41.64  .09972 1.0835 130.4 23.9 29.3  37